This demonstration page uses our WeatherBlox Daily Observations layout. Learn more.

Left ArrowRight Arrow

39.01783, -85.05884

Hourly Observations for March 1, 2018

Temp ( °F °C ) Dew Point ( °F °C ) Humidity (%) Winds ( mph kmh ) Pressure ( in mb ) Visibility ( mi km ) Precip ( " mm )
12:52 am 00:52 Cloudy with Drizzle 52 11.1 52 11.1 100 100 SSE 5 7 29.77 1008 3 4 N/A
1:19 am 01:19 Cloudy with Mist and Fog 52 11.1 52 11.1 100 100 S 6 9 29.77 1008 1 1 N/A
1:29 am 01:29 Cloudy with Mist and Fog 53 11.7 53 11.7 100 100 S 6 9 29.77 1008 1 2 N/A
1:52 am 01:52 Cloudy with Heavy Rain 54 12.2 54 12.2 100 100 S 7 11 29.75 1008 1 2 0.06 1.52
2:52 am 02:52 Cloudy with Light Rain 54 12.2 54 12.2 100 100 SSW 9 15 29.77 1008 2 3 0.07 1.78
3:52 am 03:52 Cloudy with Mist and Fog 55 12.8 55 12.8 100 100 SSW 9 15 29.71 1006 2 3 0.02 0.51
4:12 am 04:12 Cloudy with Mist and Fog 55 12.8 55 12.8 100 100 SSW 8 13 29.74 1007 4 6 N/A
4:28 am 04:28 Cloudy with Mist and Fog 55 12.8 55 12.8 100 100 S 9 15 29.71 1006 5 8 N/A
4:52 am 04:52 Cloudy with Mist and Fog 55 12.8 55 12.8 100 100 SSW 8 13 29.71 1006 5 8 N/A
5:52 am 05:52 Cloudy with Drizzle 55 12.8 55 12.8 100 100 S 6 9 29.68 1005 3 5 N/A
6:25 am 06:25 Cloudy with Light Rain 55 12.8 55 12.8 100 100 S 8 13 29.68 1005 2 3 N/A
6:27 am 06:27 Cloudy with Light Rain 55 12.8 55 12.8 100 100 S 8 13 29.68 1005 1 1 N/A
6:52 am 06:52 Cloudy with Light Rain 55 12.8 55 12.8 100 100 SSW 9 15 29.69 1006 1 1 0.02 0.51
7:24 am 07:24 Cloudy with Light Rain 55 12.8 55 12.8 100 100 SSW 8 13 29.68 1005 2 3 N/A
7:52 am 07:52 Cloudy with Heavy Rain 55 12.8 55 12.8 100 100 SSW 6 9 29.67 1005 2 3 0.05 1.27
8:03 am 08:03 Cloudy with Rain 55 12.8 55 12.8 100 100 SSW 7 11 29.68 1005 2 3 0.06 1.52
8:22 am 08:22 Cloudy with Rain 56 13.3 56 13.3 100 100 SSW 8 13 29.68 1005 2 3 0.13 3.30
8:30 am 08:30 Cloudy with Light Rain 56 13.3 56 13.3 100 100 SSW 7 11 29.68 1005 3 5 0.13 3.30
8:52 am 08:52 Cloudy with Light Rain 56 13.3 56 13.3 100 100 SSW 10 17 29.64 1004 3 5 0.14 3.56
9:17 am 09:17 Cloudy with Mist and Fog 56 13.3 56 13.3 100 100 SSW 12 19 29.65 1004 5 8 N/A
9:45 am 09:45 Cloudy with Light Rain 56 13.3 56 13.3 100 100 SSW 10 17 29.62 1003 3 4 N/A
9:52 am 09:52 Cloudy with Light Rain 56 13.3 56 13.3 100 100 SSW 10 17 29.61 1003 3 4 N/A
10:52 am 10:52 Cloudy with Light Rain 57 13.9 57 13.9 100 100 SW 12 19 29.61 1003 2 3 0.01 0.25
11:52 am 11:52 Cloudy 57 13.9 57 13.9 100 100 SW 16 26 29.60 1002 7 11 N/A
12:21 pm 12:21 Cloudy with Rain 57 13.9 57 13.9 100 100 SW 16 26 29.56 1001 3 5 0.01 0.25
12:23 pm 12:23 Cloudy with Rain 57 13.9 57 13.9 100 100 SW 15 24 29.56 1001 3 5 0.01 0.25
12:52 pm 12:52 Cloudy with Light Rain 58 14.4 57 13.9 97 97 SW 16 26 29.56 1001 5 8 0.03 0.76
1:23 pm 13:23 Cloudy with Light Rain 58 14.4 57 13.9 97 97 SW 17 28 29.53 1000 8 13 0.01 0.25
1:52 pm 13:52 Cloudy with Light Rain 58 14.4 56 13.3 93 93 WSW 15 24 29.55 1001 6 10 0.02 0.51
2:14 pm 14:14 Cloudy 57 13.9 56 13.3 96 96 W 15 24 29.53 1000 10 16 N/A
2:42 pm 14:42 Cloudy with Light Rain 56 13.3 54 12.2 93 93 WNW 29 46 29.59 1002 8 13 N/A
2:52 pm 14:52 Cloudy with Light Rain 54 12.2 53 11.7 97 97 WNW 31 50 29.60 1002 4 6 N/A
3:02 pm 15:02 Cloudy with Light Rain 50 10 50 10 100 100 WNW 29 46 29.62 1003 8 13 N/A
3:15 pm 15:15 Cloudy 51 10.6 49 9.4 92 92 WNW 21 33 29.62 1003 10 16 N/A
3:29 pm 15:29 Mostly Cloudy 52 11.1 49 9.4 89 89 W 20 31 29.62 1003 10 16 N/A
3:52 pm 15:52 Cloudy 49 9.4 45 7.2 86 86 NW 30 48 29.68 1005 10 16 N/A
4:52 pm 16:52 Cloudy 44 6.7 41 5 89 89 NW 28 44 29.77 1008 10 16 N/A
5:52 pm 17:52 Cloudy 43 6.1 38 3.3 82 82 NW 26 43 29.84 1011 10 16 N/A
6:52 pm 18:52 Cloudy 43 6.1 38 3.3 82 82 NW 18 30 29.91 1013 10 16 N/A
7:39 pm 19:39 Cloudy 43 6.1 41 5 93 93 WNW 17 28 29.97 1015 10 16 N/A
7:52 pm 19:52 Cloudy 43 6.1 41 5 93 93 NW 18 30 29.96 1015 10 16 N/A
8:44 pm 20:44 Cloudy with Drizzle 42 5.6 39 3.9 89 89 NW 22 35 30.03 1017 10 16 N/A
8:52 pm 20:52 Cloudy with Light Rain 42 5.6 39 3.9 89 89 NW 18 30 30.01 1016 9 14 N/A
9:52 pm 21:52 Cloudy with Light Rain 41 5 39 3.9 93 93 NW 24 39 30.06 1018 9 14 N/A
10:09 pm 22:09 Cloudy 41 5 38 3.3 89 89 NW 16 26 30.09 1019 10 16 N/A
10:52 pm 22:52 Cloudy 41 5 37 2.8 86 86 NW 15 24 30.08 1019 10 16 N/A
11:04 pm 23:04 Cloudy 41 5 37 2.8 86 86 NW 17 28 30.12 1020 10 16 N/A
11:52 pm 23:52 Mostly Cloudy 39 3.9 35 1.7 86 86 WNW 17 28 30.11 1020 10 16 N/A

Powered by AerisWeather